Bandera, Texas, United States (78003)
Lat: 29.73N, Lon: 99.07W
Wx Zone: TXZ187
Local Info
Past Weather Observations for Yesterday

NOTE: This archive is for the closest National Weather Service station to Bandera. Information may differ from the station used for current weather conditions.

Time Weather Temperature Dewpoint Humidity Pressure Winds Precip Visibility
23:51
Overcast
72°F / 22°C 63°F / 17°C 73% 30.09 in
(1019 mb)
SE 8.1 mph
(SE 13 kph)
- 10SM
22:51
Overcast
72°F / 22°C 63°F / 17°C 73% 30.09 in
(1019 mb)
SE 9.2 mph
(SE 15 kph)
- 10SM
21:51
Mostly Cloudy
70°F / 21°C 63°F / 17°C 78% 30.06 in
(1018 mb)
SE 9.2 mph
(SE 15 kph)
- 10SM
21:46
Mostly Cloudy
70°F / 21°C 63°F / 17°C 78% 30.06 in
(1018 mb)
SSE 8.1 mph
(SSE 13 kph)
- 10SM
20:51
Mostly Cloudy
70°F / 21°C 63°F / 17°C 78% 30.06 in
(1018 mb)
SSE 4.6 mph
(SSE 7 kph)
- 10SM
19:51
Partly Cloudy
72°F / 22°C 64°F / 18°C 78% 30.06 in
(1018 mb)
SE 3.5 mph
(SE 6 kph)
- 10SM
19:30
Mostly Cloudy
72°F / 22°C 64°F / 18°C 78% 30.04 in
(1017 mb)
SE 5.8 mph
(SE 9 kph)
- 10SM
18:51
Overcast
73°F / 23°C 64°F / 18°C 74% 30.04 in
(1017 mb)
SE 4.6 mph
(SE 7 kph)
0.00 in
(0.00 mm)
10SM
17:51
Overcast
73°F / 23°C 64°F / 18°C 74% 30.04 in
(1017 mb)
SE 10.4 mph
(SE 17 kph)
- 10SM
16:51
Overcast
73°F / 23°C 64°F / 18°C 74% 30.04 in
(1017 mb)
S 8.1 mph
(S 13 kph)
- 10SM
16:41
Overcast
73°F / 23°C 64°F / 18°C 74% 30.04 in
(1017 mb)
SSE 11.5 mph
(SSE 19 kph)
- 10SM
16:32
Overcast
73°F / 23°C 66°F / 19°C 78% 30.04 in
(1017 mb)
SSE 11.5 mph
(SSE 19 kph)
- 10SM
15:51
Overcast
73°F / 23°C 64°F / 18°C 74% 30.06 in
(1018 mb)
SSE 13.8 mph
(SSE 22 kph)
0.00 in
(0.00 mm)
10SM
14:51
Overcast
Light Rain
72°F / 22°C 64°F / 18°C 78% 30.06 in
(1018 mb)
S 13.8 mph
(S 22 kph)
0.00 in
(0.00 mm)
4SM
13:51
Overcast
73°F / 23°C 64°F / 18°C 74% 30.09 in
(1019 mb)
SE 9.2 mph
(SE 15 kph)
- 10SM
12:51
Overcast
70°F / 21°C 64°F / 18°C 83% 30.12 in
(1020 mb)
SE 8.1 mph
(SE 13 kph)
0.00 in
(0.00 mm)
7SM
12:47
Overcast
70°F / 21°C 64°F / 18°C 83% 30.12 in
(1020 mb)
ESE 9.2 mph
(ESE 15 kph)
0.00 in
(0.00 mm)
7SM
12:30
Overcast
Fog And Mist
70°F / 21°C 64°F / 18°C 83% 30.12 in
(1020 mb)
SE 6.9 mph
(SE 11 kph)
0.00 in
(0.00 mm)
4SM
12:04
Overcast
Light Rain
70°F / 21°C 64°F / 18°C 83% 30.12 in
(1020 mb)
SE 9.2 mph
(SE 15 kph)
0.00 in
(0.00 mm)
2 1/2SM
11:51
Overcast
Fog And Mist
70°F / 21°C 64°F / 18°C 83% 30.12 in
(1020 mb)
SE 9.2 mph
(SE 15 kph)
0.00 in
(0.00 mm)
6SM
11:48
Overcast
Fog And Mist
70°F / 21°C 64°F / 18°C 83% 30.12 in
(1020 mb)
SE 8.1 mph
(SE 13 kph)
0.00 in
(0.00 mm)
6SM
11:38
Overcast
Fog And Mist
70°F / 21°C 64°F / 18°C 83% 30.12 in
(1020 mb)
SE 8.1 mph
(SE 13 kph)
0.00 in
(0.00 mm)
6SM
11:28
Overcast
Fog And Mist
70°F / 21°C 64°F / 18°C 83% 30.12 in
(1020 mb)
SE 10.4 mph
(SE 17 kph)
0.00 in
(0.00 mm)
5SM
11:19
Overcast
Fog And Mist
70°F / 21°C 64°F / 18°C 83% 30.15 in
(1021 mb)
SE 10.4 mph
(SE 17 kph)
0.00 in
(0.00 mm)
5SM
11:10
Overcast
Fog And Mist
70°F / 21°C 64°F / 18°C 83% 30.15 in
(1021 mb)
SE 8.1 mph
(SE 13 kph)
0.00 in
(0.00 mm)
3SM
10:57
Overcast
Light Rain
68°F / 20°C 64°F / 18°C 88% 30.15 in
(1021 mb)
SE 8.1 mph
(SE 13 kph)
0.00 in
(0.00 mm)
2 1/2SM
10:51
Overcast
Light Rain
68°F / 20°C 64°F / 18°C 88% 30.15 in
(1021 mb)
SE 9.2 mph
(SE 15 kph)
0.01 in
(0.25 mm)
1 3/4SM
10:47
Overcast
Light Rain
68°F / 20°C 64°F / 18°C 88% 30.15 in
(1021 mb)
SE 9.2 mph
(SE 15 kph)
0.01 in
(0.25 mm)
1 1/2SM
10:25
Overcast
Light Rain
68°F / 20°C 64°F / 18°C 88% 30.15 in
(1021 mb)
SE 9.2 mph
(SE 15 kph)
0.01 in
(0.25 mm)
1 1/2SM
10:14
Overcast
Light Rain
68°F / 20°C 64°F / 18°C 88% 30.15 in
(1021 mb)
SE 8.1 mph
(SE 13 kph)
0.00 in
(0.00 mm)
2SM
09:51
Overcast
Light Rain
68°F / 20°C 63°F / 17°C 83% 30.15 in
(1021 mb)
SE 8.1 mph
(SE 13 kph)
0.00 in
(0.00 mm)
3SM
08:51
Overcast
68°F / 20°C 63°F / 17°C 83% 30.15 in
(1021 mb)
ESE 9.2 mph
(ESE 15 kph)
- 8SM
08:32
Overcast
68°F / 20°C 63°F / 17°C 83% 30.15 in
(1021 mb)
E 8.1 mph
(E 13 kph)
- 7SM
07:59
Overcast
68°F / 20°C 63°F / 17°C 83% 30.15 in
(1021 mb)
ESE 8.1 mph
(ESE 13 kph)
- 7SM
07:51
Overcast
66°F / 19°C 63°F / 17°C 88% 30.15 in
(1021 mb)
ESE 9.2 mph
(ESE 15 kph)
0.00 in
(0.00 mm)
7SM
07:17
Overcast
Light Rain
68°F / 20°C 63°F / 17°C 83% 30.12 in
(1020 mb)
ESE 6.9 mph
(ESE 11 kph)
0.00 in
(0.00 mm)
10SM
06:51
Overcast
68°F / 20°C 63°F / 17°C 83% 30.12 in
(1020 mb)
E 9.2 mph
(E 15 kph)
- 10SM
05:51
Overcast
68°F / 20°C 61°F / 16°C 78% 30.12 in
(1020 mb)
E 6.9 mph
(E 11 kph)
0.00 in
(0.00 mm)
10SM
05:21
Overcast
68°F / 20°C 61°F / 16°C 78% 30.09 in
(1019 mb)
E 10.4 mph
(E 17 kph)
0.00 in
(0.00 mm)
10SM
04:51
Overcast
68°F / 20°C 61°F / 16°C 78% 30.09 in
(1019 mb)
E 8.1 mph
(E 13 kph)
- 10SM
03:51
Overcast
68°F / 20°C 61°F / 16°C 78% 30.09 in
(1019 mb)
ESE 6.9 mph
(ESE 11 kph)
- 10SM
03:32
Overcast
68°F / 20°C 61°F / 16°C 78% 30.09 in
(1019 mb)
ESE 9.2 mph
(ESE 15 kph)
- 10SM
02:51
Overcast
70°F / 21°C 61°F / 16°C 73% 30.09 in
(1019 mb)
SE 8.1 mph
(SE 13 kph)
- 10SM
01:51
Overcast
70°F / 21°C 61°F / 16°C 73% 30.12 in
(1020 mb)
SSE 9.2 mph
(SSE 15 kph)
- 10SM
01:40
Overcast
70°F / 21°C 61°F / 16°C 73% 30.12 in
(1020 mb)
SE 9.2 mph
(SE 15 kph)
- 10SM
00:51
Overcast
70°F / 21°C 57°F / 14°C 64% 30.09 in
(1019 mb)
SE 12.7 mph
(SE 20 kph)
- 10SM
Time Weather Temperature Dewpoint Humidity Pressure Winds Precip Visibility


Weather for websites

WeatherForYou.com, LLC is not responsible for any damages or problems caused by this service. Current weather conditions are obtained from the closest station including government and personal stations which may have varying degrees of accuracy. Weather forecasts are derived from the NOAA NDFD. Like all things, this site belongs to Jesus Christ... He just trusts me to maintain it. If you have any questions or comments email webmaster@weatherforyou.com

Copyright © 2014, WeatherForYou.com LLC. All rights reserved.